,,,PA_Meas_PMT16A,,PR_Meas_QMR101_102,,RH_Meas_QMH101,,SR_Meas_QMS101,,TA_Meas_QMH101,,GenWind,,GenWind,
date,time,status,PA,status,PR,status,RH,status,SR,status,TA,status,DirAvg,status,SpdAvg,
2010-05-31, 00:00:04,VALID,1004.79,VALID,0,VALID,94.8422,VALID,0,VALID,26.3323,VALID,35,VALID,1.49727,
2010-05-31, 00:01:04,VALID,1004.77,VALID,0,VALID,94.0183,VALID,0.100563,VALID,26.4472,VALID,6,VALID,0.900781,
2010-05-31, 00:02:04,VALID,1004.73,VALID,0,VALID,92.1111,VALID,0.100563,VALID,26.5056,VALID,19,VALID,0.422656,
2010-05-31, 00:03:04,VALID,1004.73,VALID,0,VALID,91.4169,VALID,0.100563,VALID,26.5251,VALID,18,VALID,0.388672,
2010-05-31, 00:04:04,VALID,1004.7,VALID,0,VALID,90.9744,VALID,0.100563,VALID,26.5641,VALID,25,VALID,0.56875,
2010-05-31, 00:05:04,VALID,1004.71,VALID,0,VALID,90.448,VALID,0,VALID,26.603,VALID,29,VALID,0.436719,
2010-05-31, 00:06:04,VALID,1004.69,VALID,0,VALID,90.036,VALID,0.100563,VALID,26.603,VALID,29,VALID,0.507422,
2010-05-31, 00:07:04,VALID,1004.64,VALID,0,VALID,90.0132,VALID,0,VALID,26.603,VALID,29,VALID,0.159375,
2010-05-31, 00:08:04,VALID,1004.66,VALID,0,VALID,90.1581,VALID,0,VALID,26.5835,VALID,29,VALID,0.152344,
2010-05-31, 00:09:04,VALID,1004.65,VALID,0,VALID,90.3946,VALID,0,VALID,26.605,VALID,28,VALID,0.474219,
2010-05-31, 00:10:04,VALID,1004.66,VALID,0,VALID,90.4251,VALID,0,VALID,26.5641,VALID,28,VALID,0.15625,
2010-05-31, 00:11:04,VALID,1004.68,VALID,0,VALID,90.4175,VALID,0,VALID,26.5835,VALID,28,VALID,0.416797,
2010-05-31, 00:12:04,VALID,1004.69,VALID,0,VALID,90.2878,VALID,0,VALID,26.5835,VALID,28,VALID,0.0761719,
2010-05-31, 00:13:04,VALID,1004.67,VALID,0,VALID,90.181,VALID,0.100563,VALID,26.603,VALID,69,VALID,0.667188,
2010-05-31, 00:14:04,VALID,1004.69,VALID,0,VALID,90.3488,VALID,0.100563,VALID,26.5446,VALID,89,VALID,0.552344,
2010-05-31, 00:15:04,VALID,1004.7,VALID,0,VALID,90.8752,VALID,0.100563,VALID,26.4861,VALID,89,VALID,0.448438,
2010-05-31, 00:16:04,VALID,1004.69,VALID,0,VALID,91.7907,VALID,0,VALID,26.3867,VALID,89,VALID,0.210938,
2010-05-31, 00:17:04,VALID,1004.69,VALID,0,VALID,93.3165,VALID,0,VALID,26.3498,VALID,89,VALID,0.353516,
2010-05-31, 00:18:04,VALID,1004.69,VALID,0,VALID,94.1633,VALID,0,VALID,26.2913,VALID,89,VALID,0.416797,
2010-05-31, 00:19:04,VALID,1004.7,VALID,0,VALID,94.4837,VALID,0,VALID,26.2134,VALID,89,VALID,0.416406,
2010-05-31, 00:20:04,VALID,1004.7,VALID,0,VALID,94.9338,VALID,0.100563,VALID,26.155,VALID,89,VALID,0.455078,
2010-05-31, 00:21:04,VALID,1004.72,VALID,0,VALID,95.3076,VALID,0.100563,VALID,26.0771,VALID,89,VALID,0.5625,
2010-05-31, 00:22:04,VALID,1004.7,VALID,0,VALID,95.5441,VALID,0.100563,VALID,26.0187,VALID,89,VALID,0.733203,
2010-05-31, 00:23:04,VALID,1004.7,VALID,0,VALID,95.7501,VALID,0.100563,VALID,25.9797,VALID,89,VALID,0.474219,
2010-05-31, 00:24:04,VALID,1004.69,VALID,0,VALID,95.9179,VALID,0.100563,VALID,25.9408,VALID,89,VALID,0.282813,
2010-05-31, 00:25:04,VALID,1004.68,VALID,0,VALID,96.101,VALID,0,VALID,25.8823,VALID,89,VALID,0.158984,
2010-05-31, 00:26:04,VALID,1004.67,VALID,0,VALID,96.2536,VALID,0,VALID,25.8629,VALID,74,VALID,0.355078,
2010-05-31, 00:27:04,VALID,1004.68,VALID,0,VALID,96.3756,VALID,0.100563,VALID,25.8219,VALID,74,VALID,0.427734,
2010-05-31, 00:28:04,VALID,1004.64,VALID,0,VALID,96.5053,VALID,0.100563,VALID,25.8239,VALID,74,VALID,0.242578,
2010-05-31, 00:29:04,VALID,1004.62,VALID,0,VALID,96.5893,VALID,0.100563,VALID,25.8044,VALID,68,VALID,0.340625,
2010-05-31, 00:30:04,VALID,1004.57,VALID,0,VALID,96.6579,VALID,0,VALID,25.785,VALID,50,VALID,0.293359,
2010-05-31, 00:31:04,VALID,1004.58,VALID,0,VALID,96.7876,VALID,0.100563,VALID,25.7674,VALID,47,VALID,0.445313,
2010-05-31, 00:32:04,VALID,1004.55,VALID,0,VALID,96.8792,VALID,0.100563,VALID,25.7655,VALID,44,VALID,0.292969,
2010-05-31, 00:33:04,VALID,1004.5,VALID,0,VALID,96.9783,VALID,0.100563,VALID,25.746,VALID,37,VALID,0.546875,
2010-05-31, 00:34:04,VALID,1004.49,VALID,0,VALID,97.0851,VALID,0.100563,VALID,25.785,VALID,35,VALID,0.426172,
2010-05-31, 00:35:04,VALID,1004.48,VALID,0,VALID,97.1309,VALID,0.100563,VALID,25.8044,VALID,36,VALID,0.65625,
2010-05-31, 00:36:04,VALID,1004.47,VALID,0,VALID,97.1691,VALID,0.100563,VALID,25.8044,VALID,38,VALID,0.312109,
2010-05-31, 00:37:04,VALID,1004.47,VALID,0,VALID,97.1919,VALID,0,VALID,25.8044,VALID,40,VALID,0.185937,
2010-05-31, 00:38:04,VALID,1004.45,VALID,0,VALID,97.1843,VALID,0.100563,VALID,25.8044,VALID,40,VALID,0.364453,
2010-05-31, 00:39:04,VALID,1004.44,VALID,0,VALID,97.1843,VALID,0,VALID,25.785,VALID,345,VALID,0.489453,
2010-05-31, 00:40:04,VALID,1004.38,VALID,0,VALID,97.1843,VALID,0,VALID,25.8044,VALID,345,VALID,0.411719,
2010-05-31, 00:41:04,VALID,1004.38,VALID,0,VALID,97.1996,VALID,0,VALID,25.785,VALID,345,VALID,0.312109,
2010-05-31, 00:42:04,VALID,1004.37,VALID,0,VALID,97.2301,VALID,0,VALID,25.7655,VALID,345,VALID,0.386328,
2010-05-31, 00:43:04,VALID,1004.34,VALID,0,VALID,97.253,VALID,0,VALID,25.7655,VALID,345,VALID,0.202344,
2010-05-31, 00:44:04,VALID,1004.35,VALID,0,VALID,97.2911,VALID,0.100563,VALID,25.744,VALID,345,VALID,0.0117188,
2010-05-31, 00:45:04,VALID,1004.36,VALID,0,VALID,97.314,VALID,0.100563,VALID,25.746,VALID,345,VALID,0,
2010-05-31, 00:46:04,VALID,1004.41,VALID,0,VALID,97.2987,VALID,0,VALID,25.7265,VALID,345,VALID,0,
2010-05-31, 00:47:04,VALID,1004.42,VALID,0,VALID,97.3216,VALID,0,VALID,25.748,VALID,345,VALID,0,
2010-05-31, 00:48:04,VALID,1004.44,VALID,0,VALID,97.3216,VALID,0,VALID,25.748,VALID,345,VALID,0,
2010-05-31, 00:49:04,VALID,1004.46,VALID,0,VALID,97.3293,VALID,0,VALID,25.748,VALID,345,VALID,0,
2010-05-31, 00:50:04,VALID,1004.44,VALID,0,VALID,97.3521,VALID,0,VALID,25.6895,VALID,345,VALID,0,
2010-05-31, 00:51:04,VALID,1004.4,VALID,0,VALID,97.3674,VALID,0,VALID,25.6895,VALID,345,VALID,0,
2010-05-31, 00:52:04,VALID,1004.43,VALID,0,VALID,97.3827,VALID,0,VALID,25.67,VALID,345,VALID,0.198437,
2010-05-31, 00:53:04,VALID,1004.43,VALID,0,VALID,97.375,VALID,0,VALID,25.67,VALID,345,VALID,0.0535156,
2010-05-31, 00:54:04,VALID,1004.44,VALID,0,VALID,97.375,VALID,0,VALID,25.6097,VALID,345,VALID,0.209375,
2010-05-31, 00:55:04,VALID,1004.43,VALID,0,VALID,97.3979,VALID,0,VALID,25.6116,VALID,345,VALID,0.148438,
2010-05-31, 00:56:04,VALID,1004.43,VALID,0,VALID,97.4055,VALID,0,VALID,25.5727,VALID,345,VALID,0.303516,
2010-05-31, 00:57:04,VALID,1004.43,VALID,0,VALID,97.4132,VALID,0,VALID,25.5532,VALID,345,VALID,0.231641,
2010-05-31, 00:58:04,VALID,1004.42,VALID,0,VALID,97.4437,VALID,0,VALID,25.5532,VALID,345,VALID,0.294922,
2010-05-31, 00:59:04,VALID,1004.42,VALID,0,VALID,97.4742,VALID,0,VALID,25.5532,VALID,345,VALID,0.191406,
2010-05-31, 01:00:04,VALID,1004.45,VALID,0,VALID,97.5276,VALID,0,VALID,25.5123,VALID,345,VALID,0.0917969,
2010-05-31, 01:01:04,VALID,1004.45,VALID,0,VALID,97.5429,VALID,0,VALID,25.5318,VALID,345,VALID,0.00351562,
2010-05-31, 01:02:04,VALID,1004.48,VALID,0,VALID,97.5886,VALID,0,VALID,25.5337,VALID,345,VALID,0,
2010-05-31, 01:03:04,VALID,1004.48,VALID,0,VALID,97.5963,VALID,0,VALID,25.4928,VALID,345,VALID,0,
2010-05-31, 01:04:04,VALID,1004.45,VALID,0,VALID,97.581,VALID,0,VALID,25.4734,VALID,345,VALID,0,
2010-05-31, 01:05:04,VALID,1004.44,VALID,0,VALID,97.5886,VALID,0,VALID,25.4948,VALID,345,VALID,0,
2010-05-31, 01:06:04,VALID,1004.43,VALID,0,VALID,97.6039,VALID,0,VALID,25.4539,VALID,345,VALID,0.0078125,
2010-05-31, 01:07:04,VALID,1004.45,VALID,0,VALID,97.6192,VALID,0,VALID,25.4558,VALID,346,VALID,0.441406,
2010-05-31, 01:08:04,VALID,1004.41,VALID,0,VALID,97.6497,VALID,0,VALID,25.4149,VALID,11,VALID,0.573828,
2010-05-31, 01:09:04,VALID,1004.42,VALID,0,VALID,97.6573,VALID,0,VALID,25.4169,VALID,14,VALID,0.217969,
2010-05-31, 01:10:04,VALID,1004.38,VALID,0,VALID,97.6497,VALID,0,VALID,25.376,VALID,14,VALID,0.0140625,
2010-05-31, 01:11:04,VALID,1004.37,VALID,0,VALID,97.6726,VALID,0,VALID,25.3779,VALID,14,VALID,0,
2010-05-31, 01:12:04,VALID,1004.38,VALID,0,VALID,97.6878,VALID,0,VALID,25.3779,VALID,14,VALID,0,
2010-05-31, 01:13:04,VALID,1004.35,VALID,0,VALID,97.7031,VALID,0,VALID,25.3584,VALID,14,VALID,0.277344,
2010-05-31, 01:14:04,VALID,1004.4,VALID,0,VALID,97.726,VALID,0,VALID,25.339,VALID,14,VALID,0.435937,
2010-05-31, 01:15:04,VALID,1004.41,VALID,0,VALID,97.7412,VALID,0,VALID,25.339,VALID,12,VALID,0.530859,
2010-05-31, 01:16:04,VALID,1004.38,VALID,0,VALID,97.7336,VALID,0.100563,VALID,25.2962,VALID,11,VALID,0.51875,
2010-05-31, 01:17:04,VALID,1004.37,VALID,0,VALID,97.7336,VALID,0.100563,VALID,25.3176,VALID,11,VALID,0.400781,
2010-05-31, 01:18:04,VALID,1004.35,VALID,0,VALID,97.7794,VALID,0.100563,VALID,25.3176,VALID,11,VALID,0.341406,
2010-05-31, 01:19:04,VALID,1004.34,VALID,0,VALID,97.7794,VALID,0,VALID,25.337,VALID,11,VALID,0,
2010-05-31, 01:20:04,VALID,1004.31,VALID,0,VALID,97.7946,VALID,0,VALID,25.3176,VALID,11,VALID,0,
2010-05-31, 01:21:04,VALID,1004.35,VALID,0,VALID,97.8022,VALID,0.100563,VALID,25.337,VALID,11,VALID,0.0285156,
2010-05-31, 01:22:04,VALID,1004.31,VALID,0,VALID,97.8022,VALID,0,VALID,25.3584,VALID,359,VALID,0.589844,
2010-05-31, 01:23:04,VALID,1004.29,VALID,0,VALID,97.8022,VALID,0,VALID,25.3779,VALID,358,VALID,0.534766,
2010-05-31, 01:24:04,VALID,1004.27,VALID,0,VALID,97.8633,VALID,0,VALID,25.3176,VALID,358,VALID,0.601563,
2010-05-31, 01:25:04,VALID,1004.25,VALID,0,VALID,97.8633,VALID,0,VALID,25.2786,VALID,358,VALID,0.577344,
2010-05-31, 01:26:04,VALID,1004.2,VALID,0,VALID,97.8633,VALID,0,VALID,25.2592,VALID,358,VALID,0.586328,
2010-05-31, 01:27:04,VALID,1004.15,VALID,0,VALID,97.8557,VALID,0.100563,VALID,25.2416,VALID,358,VALID,0.673437,
2010-05-31, 01:28:04,VALID,1004.1,VALID,0,VALID,97.8328,VALID,0,VALID,25.2202,VALID,356,VALID,0.623828,
2010-05-31, 01:29:04,VALID,1004.08,VALID,0,VALID,97.848,VALID,0.100563,VALID,25.2416,VALID,356,VALID,0.677734,
2010-05-31, 01:30:04,VALID,1004.07,VALID,0,VALID,97.8328,VALID,0,VALID,25.2397,VALID,356,VALID,0.721094,
2010-05-31, 01:31:04,VALID,1004.06,VALID,0,VALID,97.8404,VALID,0,VALID,25.2202,VALID,356,VALID,0.517187,
2010-05-31, 01:32:04,VALID,1004.05,VALID,0,VALID,97.8709,VALID,0,VALID,25.2007,VALID,356,VALID,0.544531,
2010-05-31, 01:33:04,VALID,1004.06,VALID,0,VALID,97.8633,VALID,0,VALID,25.2007,VALID,353,VALID,0.71875,
2010-05-31, 01:34:04,VALID,1004.05,VALID,0,VALID,97.8938,VALID,0,VALID,25.2007,VALID,354,VALID,0.873438,
2010-05-31, 01:35:04,VALID,1004.02,VALID,0,VALID,97.8862,VALID,0,VALID,25.2221,VALID,354,VALID,0.929688,
2010-05-31, 01:36:04,VALID,1004.02,VALID,0,VALID,97.8938,VALID,0,VALID,25.2007,VALID,353,VALID,0.910547,
2010-05-31, 01:37:04,VALID,1003.98,VALID,0,VALID,97.8709,VALID,0,VALID,25.2202,VALID,349,VALID,1.07461,
2010-05-31, 01:38:04,VALID,1003.92,VALID,0,VALID,97.8785,VALID,0.100563,VALID,25.2397,VALID,357,VALID,0.609375,
2010-05-31, 01:39:04,VALID,1003.89,VALID,0,VALID,97.8862,VALID,0,VALID,25.2397,VALID,353,VALID,0.638281,
2010-05-31, 01:40:04,VALID,1003.91,VALID,0,VALID,97.8862,VALID,0,VALID,25.2202,VALID,354,VALID,0.628906,
2010-05-31, 01:41:04,VALID,1003.94,VALID,0,VALID,97.8938,VALID,0.100563,VALID,25.2397,VALID,338,VALID,0.421094,
2010-05-31, 01:42:04,VALID,1003.94,VALID,0,VALID,97.9243,VALID,0,VALID,25.2592,VALID,349,VALID,0.545703,
2010-05-31, 01:43:04,VALID,1004,VALID,0,VALID,97.909,VALID,0,VALID,25.2592,VALID,349,VALID,0.4375,
2010-05-31, 01:44:04,VALID,1004.05,VALID,0,VALID,97.9167,VALID,0,VALID,25.2397,VALID,349,VALID,0.594922,
2010-05-31, 01:45:04,VALID,1004.07,VALID,0,VALID,97.9243,VALID,0,VALID,25.2397,VALID,349,VALID,0.569141,
2010-05-31, 01:46:04,VALID,1004.07,VALID,0,VALID,97.9319,VALID,0,VALID,25.2416,VALID,349,VALID,0.600781,
2010-05-31, 01:47:04,VALID,1004.02,VALID,0,VALID,97.9396,VALID,0,VALID,25.2221,VALID,354,VALID,0.565625,
2010-05-31, 01:48:04,VALID,1003.99,VALID,0,VALID,97.9396,VALID,0,VALID,25.2221,VALID,349,VALID,0.853516,
2010-05-31, 01:49:04,VALID,1003.98,VALID,0,VALID,97.9243,VALID,0,VALID,25.2221,VALID,347,VALID,0.797656,
2010-05-31, 01:50:04,VALID,1003.95,VALID,0,VALID,97.9243,VALID,0,VALID,25.2027,VALID,351,VALID,0.644531,
2010-05-31, 01:51:04,VALID,1003.94,VALID,0,VALID,97.9472,VALID,0,VALID,25.2221,VALID,351,VALID,0.540625,
2010-05-31, 01:52:04,VALID,1003.94,VALID,0,VALID,97.9472,VALID,0,VALID,25.1832,VALID,351,VALID,0.529688,
2010-05-31, 01:53:04,VALID,1003.92,VALID,0,VALID,97.9625,VALID,0,VALID,25.1832,VALID,351,VALID,0.458594,
2010-05-31, 01:54:04,VALID,1003.91,VALID,0,VALID,97.909,VALID,0,VALID,25.2027,VALID,351,VALID,0.592969,
2010-05-31, 01:55:04,VALID,1003.92,VALID,0,VALID,97.9243,VALID,0,VALID,25.2027,VALID,347,VALID,0.560547,
2010-05-31, 01:56:04,VALID,1003.92,VALID,0,VALID,97.909,VALID,0,VALID,25.2027,VALID,347,VALID,0.642187,
2010-05-31, 01:57:04,VALID,1003.9,VALID,0,VALID,97.8938,VALID,0,VALID,25.2416,VALID,346,VALID,0.614453,
2010-05-31, 01:58:04,VALID,1003.85,VALID,0,VALID,97.8785,VALID,0,VALID,25.3,VALID,348,VALID,0.694141,
2010-05-31, 01:59:04,VALID,1003.87,VALID,0,VALID,97.9014,VALID,0,VALID,25.3584,VALID,335,VALID,0.682813,
2010-05-31, 02:00:04,VALID,1003.85,VALID,0,VALID,97.9243,VALID,0,VALID,25.3974,VALID,345,VALID,0.566406,
2010-05-31, 02:01:04,VALID,1003.87,VALID,0,VALID,97.9167,VALID,0,VALID,25.4363,VALID,352,VALID,0.398828,
2010-05-31, 02:02:04,VALID,1003.86,VALID,0,VALID,97.9167,VALID,0,VALID,25.4558,VALID,352,VALID,0.370313,
2010-05-31, 02:03:04,VALID,1003.88,VALID,0,VALID,97.8862,VALID,0,VALID,25.4753,VALID,352,VALID,0.451562,
2010-05-31, 02:04:04,VALID,1003.85,VALID,0,VALID,97.848,VALID,0,VALID,25.4734,VALID,351,VALID,0.362891,
2010-05-31, 02:05:04,VALID,1003.87,VALID,0,VALID,97.7946,VALID,0,VALID,25.5337,VALID,351,VALID,0.43125,
2010-05-31, 02:06:04,VALID,1003.84,VALID,0,VALID,97.7183,VALID,0,VALID,25.5532,VALID,351,VALID,0.385156,
2010-05-31, 02:07:04,VALID,1003.83,VALID,0,VALID,97.6344,VALID,0,VALID,25.5921,VALID,351,VALID,0.325391,
2010-05-31, 02:08:04,VALID,1003.82,VALID,0,VALID,97.4895,VALID,0,VALID,25.6311,VALID,343,VALID,0.727734,
2010-05-31, 02:09:04,VALID,1003.82,VALID,0,VALID,97.375,VALID,0,VALID,25.6895,VALID,314,VALID,0.359766,
2010-05-31, 02:10:04,VALID,1003.78,VALID,0,VALID,97.1691,VALID,0,VALID,25.7285,VALID,313,VALID,0.43125,
2010-05-31, 02:11:04,VALID,1003.78,VALID,0,VALID,97.0317,VALID,0,VALID,25.7285,VALID,337,VALID,0.527734,
2010-05-31, 02:12:04,VALID,1003.79,VALID,0,VALID,96.8639,VALID,0,VALID,25.7674,VALID,348,VALID,0.403125,
2010-05-31, 02:13:04,VALID,1003.78,VALID,0,VALID,96.7418,VALID,0,VALID,25.7869,VALID,353,VALID,0.484375,
2010-05-31, 02:14:04,VALID,1003.8,VALID,0,VALID,96.6274,VALID,0,VALID,25.8259,VALID,353,VALID,0.423047,
2010-05-31, 02:15:04,VALID,1003.78,VALID,0,VALID,96.5359,VALID,0,VALID,25.8259,VALID,353,VALID,0.0203125,
2010-05-31, 02:16:04,VALID,1003.75,VALID,0,VALID,96.4748,VALID,0,VALID,25.8064,VALID,349,VALID,0.369141,
2010-05-31, 02:17:04,VALID,1003.74,VALID,0,VALID,96.4748,VALID,0,VALID,25.8064,VALID,349,VALID,0.133594,
2010-05-31, 02:18:04,VALID,1003.73,VALID,0,VALID,96.4748,VALID,0,VALID,25.7869,VALID,349,VALID,0.286328,
2010-05-31, 02:19:04,VALID,1003.73,VALID,0,VALID,96.4443,VALID,0,VALID,25.748,VALID,2,VALID,0.639063,
2010-05-31, 02:20:04,VALID,1003.73,VALID,0,VALID,96.429,VALID,0,VALID,25.7304,VALID,2,VALID,0.633594,
2010-05-31, 02:21:04,VALID,1003.73,VALID,0,VALID,96.4825,VALID,0,VALID,25.67,VALID,335,VALID,0.554297,
2010-05-31, 02:22:04,VALID,1003.72,VALID,0,VALID,96.5511,VALID,0,VALID,25.6311,VALID,345,VALID,0.837109,
2010-05-31, 02:23:04,VALID,1003.74,VALID,0,VALID,96.6655,VALID,0,VALID,25.6136,VALID,327,VALID,0.619141,
2010-05-31, 02:24:04,VALID,1003.76,VALID,0,VALID,96.7571,VALID,0,VALID,25.5513,VALID,328,VALID,0.51875,
2010-05-31, 02:25:04,VALID,1003.74,VALID,0,VALID,96.841,VALID,0,VALID,25.5123,VALID,336,VALID,0.535547,
2010-05-31, 02:26:04,VALID,1003.74,VALID,0,VALID,96.9249,VALID,0,VALID,25.5357,VALID,337,VALID,0.502734,
2010-05-31, 02:27:04,VALID,1003.75,VALID,0,VALID,96.9936,VALID,0,VALID,25.5142,VALID,337,VALID,0.544141,
2010-05-31, 02:28:04,VALID,1003.76,VALID,0,VALID,97.0546,VALID,0,VALID,25.5162,VALID,337,VALID,0.689062,
2010-05-31, 02:29:04,VALID,1003.76,VALID,0,VALID,97.1309,VALID,0,VALID,25.4753,VALID,342,VALID,0.635156,
2010-05-31, 02:30:04,VALID,1003.75,VALID,0,VALID,97.1843,VALID,0,VALID,25.4558,VALID,347,VALID,0.749219,
2010-05-31, 02:31:04,VALID,1003.77,VALID,0,VALID,97.2377,VALID,0,VALID,25.4363,VALID,346,VALID,0.753516,
2010-05-31, 02:32:04,VALID,1003.72,VALID,0,VALID,97.3064,VALID,0,VALID,25.4363,VALID,348,VALID,0.688281,
2010-05-31, 02:33:04,VALID,1003.69,VALID,0,VALID,97.3598,VALID,0,VALID,25.4363,VALID,349,VALID,0.737891,
2010-05-31, 02:34:04,VALID,1003.64,VALID,0,VALID,97.3979,VALID,0,VALID,25.4772,VALID,318,VALID,0.716797,
2010-05-31, 02:35:04,VALID,1003.57,VALID,0,VALID,97.4513,VALID,0,VALID,25.5162,VALID,334,VALID,0.666016,
2010-05-31, 02:36:04,VALID,1003.53,VALID,0,VALID,97.4513,VALID,0,VALID,25.5337,VALID,356,VALID,0.752734,
2010-05-31, 02:37:04,VALID,1003.46,VALID,0,VALID,97.4132,VALID,0,VALID,25.5727,VALID,4,VALID,0.159766,
2010-05-31, 02:38:04,VALID,1003.41,VALID,0,VALID,97.3827,VALID,0,VALID,25.6116,VALID,344,VALID,0.487891,
2010-05-31, 02:39:04,VALID,1003.36,VALID,0,VALID,97.3445,VALID,0,VALID,25.6506,VALID,338,VALID,0.526563,
2010-05-31, 02:40:04,VALID,1003.33,VALID,0,VALID,97.2072,VALID,0,VALID,25.709,VALID,356,VALID,0.981641,
2010-05-31, 02:41:04,VALID,1003.27,VALID,0,VALID,96.986,VALID,0,VALID,25.7071,VALID,349,VALID,0.958984,
2010-05-31, 02:42:04,VALID,1003.24,VALID,0,VALID,96.7418,VALID,0,VALID,25.7713,VALID,353,VALID,0.998438,
2010-05-31, 02:43:04,VALID,1003.25,VALID,0,VALID,96.5511,VALID,0,VALID,25.748,VALID,352,VALID,1.35977,
2010-05-31, 02:44:04,VALID,1003.27,VALID,0,VALID,96.4443,VALID,0,VALID,25.746,VALID,345,VALID,0.971484,
2010-05-31, 02:45:04,VALID,1003.29,VALID,0,VALID,96.3604,VALID,0,VALID,25.7674,VALID,353,VALID,0.803516,
2010-05-31, 02:46:04,VALID,1003.33,VALID,0,VALID,96.3146,VALID,0,VALID,25.7869,VALID,32,VALID,0.545313,
2010-05-31, 02:47:04,VALID,1003.42,VALID,0,VALID,96.2917,VALID,0,VALID,25.8668,VALID,17,VALID,0.903516,
2010-05-31, 02:48:04,VALID,1003.51,VALID,0,VALID,96.1239,VALID,0,VALID,25.9038,VALID,66,VALID,0.443359,
2010-05-31, 02:49:04,VALID,1003.61,VALID,0,VALID,95.9179,VALID,0,VALID,25.9622,VALID,357,VALID,1.28594,
2010-05-31, 02:50:04,VALID,1003.7,VALID,0,VALID,95.5822,VALID,0,VALID,26.0596,VALID,25,VALID,1.57422,
2010-05-31, 02:51:04,VALID,1003.73,VALID,0,VALID,94.4989,VALID,0,VALID,26.2349,VALID,23,VALID,1.41719,
2010-05-31, 02:52:04,VALID,1003.75,VALID,0,VALID,89.7461,VALID,0,VALID,26.4122,VALID,359,VALID,0.416797,
2010-05-31, 02:53:04,VALID,1003.75,VALID,0,VALID,88.7697,VALID,0,VALID,26.4297,VALID,46,VALID,1.11094,
2010-05-31, 02:54:04,VALID,1003.75,VALID,0,VALID,88.2738,VALID,0,VALID,26.5271,VALID,38,VALID,0.590234,
2010-05-31, 02:55:04,VALID,1003.75,VALID,0,VALID,87.7855,VALID,0,VALID,26.5835,VALID,85,VALID,1.06133,
2010-05-31, 02:56:04,VALID,1003.83,VALID,0,VALID,87.3125,VALID,0,VALID,26.7239,VALID,29,VALID,0.465625,
2010-05-31, 02:57:04,VALID,1003.85,VALID,0,VALID,87.1066,VALID,0,VALID,26.7434,VALID,29,VALID,0.233203,
2010-05-31, 02:58:04,VALID,1003.91,VALID,0,VALID,87.0379,VALID,0,VALID,26.7219,VALID,29,VALID,0.00195313,
2010-05-31, 02:59:04,VALID,1003.97,VALID,0,VALID,87.0989,VALID,0,VALID,26.7024,VALID,29,VALID,0,
2010-05-31, 03:00:04,VALID,1003.92,VALID,0,VALID,87.1905,VALID,0,VALID,26.683,VALID,29,VALID,0.392578,
2010-05-31, 03:01:04,VALID,1003.86,VALID,0,VALID,87.3583,VALID,0,VALID,26.6635,VALID,4,VALID,0.550391,
2010-05-31, 03:02:04,VALID,1003.8,VALID,0,VALID,87.427,VALID,0,VALID,26.644,VALID,345,VALID,0.663672,
2010-05-31, 03:03:04,VALID,1003.72,VALID,0,VALID,87.6635,VALID,0,VALID,26.6245,VALID,346,VALID,0.917188,
2010-05-31, 03:04:04,VALID,1003.65,VALID,0,VALID,88.0602,VALID,0,VALID,26.5855,VALID,354,VALID,1.02969,
2010-05-31, 03:05:04,VALID,1003.65,VALID,0,VALID,88.556,VALID,0,VALID,26.4881,VALID,4,VALID,0.708203,
2010-05-31, 03:06:04,VALID,1003.66,VALID,0,VALID,88.9527,VALID,0,VALID,26.4317,VALID,9,VALID,1.08164,
2010-05-31, 03:07:04,VALID,1003.63,VALID,0,VALID,89.1511,VALID,0,VALID,26.3713,VALID,358,VALID,1.17617,
2010-05-31, 03:08:04,VALID,1003.65,VALID,0,VALID,89.3494,VALID,0,VALID,26.3518,VALID,29,VALID,1.44805,
2010-05-31, 03:09:04,VALID,1003.66,VALID,0,VALID,89.4028,VALID,0,VALID,26.3713,VALID,8,VALID,1.21055,
2010-05-31, 03:10:04,VALID,1003.64,VALID,0,VALID,88.4492,VALID,0,VALID,26.3907,VALID,16,VALID,1.78125,
2010-05-31, 03:11:04,VALID,1003.62,VALID,0,VALID,88.4416,VALID,0,VALID,26.4297,VALID,10,VALID,0.960156,
2010-05-31, 03:12:04,VALID,1003.61,VALID,0,VALID,88.434,VALID,0,VALID,26.4102,VALID,13,VALID,1.04844,
2010-05-31, 03:13:04,VALID,1003.58,VALID,0,VALID,88.3501,VALID,0,VALID,26.4102,VALID,5,VALID,1.02188,
2010-05-31, 03:14:04,VALID,1003.59,VALID,0,VALID,88.3119,VALID,0,VALID,26.3907,VALID,3,VALID,0.660156,
2010-05-31, 03:15:04,VALID,1003.59,VALID,0,VALID,88.2051,VALID,0,VALID,26.3713,VALID,21,VALID,0.966797,
2010-05-31, 03:16:04,VALID,1003.58,VALID,0,VALID,88.1899,VALID,0,VALID,26.3693,VALID,343,VALID,0.835938,
2010-05-31, 03:17:04,VALID,1003.61,VALID,0,VALID,87.7703,VALID,0,VALID,26.4102,VALID,357,VALID,1.70703,
2010-05-31, 03:18:04,VALID,1003.63,VALID,0,VALID,87.6329,VALID,0,VALID,26.4082,VALID,20,VALID,2.13398,
2010-05-31, 03:19:04,VALID,1003.65,VALID,0,VALID,88.2204,VALID,0,VALID,26.4102,VALID,10,VALID,1.29453,
2010-05-31, 03:20:04,VALID,1003.69,VALID,0,VALID,88.7086,VALID,0,VALID,26.3303,VALID,353,VALID,1.34805,
2010-05-31, 03:21:04,VALID,1003.69,VALID,0,VALID,88.8993,VALID,0,VALID,26.2719,VALID,358,VALID,1.2625,
2010-05-31, 03:22:04,VALID,1003.68,VALID,0,VALID,88.9146,VALID,0,VALID,26.2329,VALID,12,VALID,2.05312,
2010-05-31, 03:23:04,VALID,1003.69,VALID,0,VALID,89.1206,VALID,0,VALID,26.2134,VALID,16,VALID,1.27773,
2010-05-31, 03:24:04,VALID,1003.71,VALID,0,VALID,89.0595,VALID,0,VALID,26.2329,VALID,5,VALID,0.887891,
2010-05-31, 03:25:04,VALID,1003.74,VALID,0,VALID,89.4944,VALID,0,VALID,26.2134,VALID,15,VALID,1.16094,
2010-05-31, 03:26:04,VALID,1003.8,VALID,0,VALID,89.4715,VALID,0,VALID,26.2154,VALID,348,VALID,1.25781,
2010-05-31, 03:27:04,VALID,1003.83,VALID,0,VALID,89.7538,VALID,0,VALID,26.1959,VALID,47,VALID,0.959375,
2010-05-31, 03:28:04,VALID,1003.88,VALID,0,VALID,89.7614,VALID,0,VALID,26.1745,VALID,24,VALID,0.713281,
2010-05-31, 03:29:04,VALID,1003.96,VALID,0,VALID,90.2191,VALID,0,VALID,26.155,VALID,52,VALID,0.511719,
2010-05-31, 03:30:04,VALID,1004.03,VALID,0,VALID,90.2802,VALID,0,VALID,26.1355,VALID,107,VALID,0.888281,
2010-05-31, 03:31:04,VALID,1004.13,VALID,0,VALID,93.1029,VALID,0,VALID,26.1355,VALID,125,VALID,1.31953,
2010-05-31, 03:32:04,VALID,1004.2,VALID,0.5,VALID,94.2319,VALID,0,VALID,26.0576,VALID,132,VALID,1.77891,
2010-05-31, 03:33:04,VALID,1004.27,VALID,0,VALID,95.1932,VALID,0,VALID,25.9602,VALID,133,VALID,1.80078,
2010-05-31, 03:34:04,VALID,1004.29,VALID,0,VALID,95.8416,VALID,0,VALID,25.8434,VALID,148,VALID,1.83086,
2010-05-31, 03:35:04,VALID,1004.34,VALID,0.5,VALID,96.2307,VALID,0,VALID,25.7869,VALID,134,VALID,2.01016,
2010-05-31, 03:36:04,VALID,1004.31,VALID,0,VALID,96.6274,VALID,0,VALID,25.6681,VALID,143,VALID,1.5168,
2010-05-31, 03:37:04,VALID,1004.24,VALID,0.5,VALID,96.9402,VALID,0,VALID,25.5921,VALID,154,VALID,2.55742,
2010-05-31, 03:38:04,VALID,1004.22,VALID,0.5,VALID,97.1462,VALID,0,VALID,25.5123,VALID,155,VALID,1.41328,
2010-05-31, 03:39:04,VALID,1004.18,VALID,0.5,VALID,97.3521,VALID,0,VALID,25.4539,VALID,143,VALID,2.16484,
2010-05-31, 03:40:04,VALID,1004.19,VALID,0,VALID,97.4513,VALID,0,VALID,25.2786,VALID,167,VALID,2.9668,
2010-05-31, 03:41:04,VALID,1004.16,VALID,0.5,VALID,97.3979,VALID,0,VALID,25.1618,VALID,182,VALID,1.81758,
2010-05-31, 03:42:04,VALID,1004.17,VALID,0,VALID,97.4895,VALID,0,VALID,25.1053,VALID,168,VALID,2.04727,
2010-05-31, 03:43:04,VALID,1004.14,VALID,0.5,VALID,97.6039,VALID,0,VALID,25.0663,VALID,161,VALID,1.44727,
2010-05-31, 03:44:04,VALID,1004.17,VALID,0,VALID,97.6954,VALID,0,VALID,25.006,VALID,171,VALID,1.52461,